Date String (YYYY-MM-DD hh:mm:ss) UTC,Instrument flags,absolute air pressure of the measurement (hPa),sample flow rate (lpm),inlet stack bypass flow (lpm),air temperature of the measurement (°C),ambient temperature measured by the external sensor (°C),aerosol sample conditioner tube jacket temperature (°C),OPC LED temperature (°C),internal box temperature (°C),relative humidity of the measurement (%),span deviation,mass concentration of particles derived from Lorenz-Mie calculation of OPC scattering (μg/m³),mass concentration of particles derived from Lorenz-Mie calculation of OPC scattering (μg/m³),mass concentration of particles derived from Lorenz-Mie calculation of OPC scattering (μg/m³)
DateTimeUTC,F1_M11,P_M11,Q1_M11,Q2_M11,T1_M11,T2_M11,T3_M11,T4_M11,T5_M11,U1_M11,ZSPAN_M11,X2_M11,X0_M11,X1_M11
2024-06-13 22:00:00,SystemResetWarning,0830.3,5.00,000.00,027.9,026.6,000.0,036.4,029.6,025.5,0000.0,0006.37,0021.42,0004.85
2024-06-13 22:01:00,SystemResetWarning,0830.4,5.00,000.00,028.0,027.0,000.0,036.4,029.8,025.9,0000.0,0006.41,0021.44,0004.86
2024-06-13 22:02:00,SystemResetWarning,0830.4,5.00,000.00,028.1,027.4,000.0,036.4,030.0,025.7,0000.0,0006.47,0022.10,0004.86
2024-06-13 22:03:00,SystemResetWarning,0830.5,5.00,000.00,028.2,027.7,000.0,036.4,030.1,025.4,0000.0,0006.45,0022.55,0004.87
2024-06-13 22:04:00,SystemResetWarning,0830.6,4.99,000.00,028.4,027.9,000.0,036.4,030.3,024.8,0000.0,0006.54,0024.51,0004.90
2024-06-13 22:05:00,SystemResetWarning,0830.6,4.98,000.00,028.5,028.1,000.0,036.5,030.4,025.3,0000.0,0006.59,0025.35,0004.92
2024-06-13 22:06:00,SystemResetWarning,0830.4,5.00,000.00,028.5,027.2,000.0,036.6,029.9,024.9,0000.0,0006.58,0026.46,0004.92
2024-06-13 22:07:00,SystemResetWarning,0830.5,5.00,000.00,028.1,025.4,000.0,036.6,029.0,025.2,0000.0,0006.63,0029.17,0004.91
2024-06-13 22:08:00,SystemResetWarning,0830.4,5.02,000.00,027.9,025.5,000.0,036.6,029.0,025.2,0000.0,0006.65,0029.58,0004.89
2024-06-13 22:09:00,SystemResetWarning,0830.4,5.00,000.00,028.0,026.0,000.0,036.5,029.3,024.3,0000.0,0006.74,0030.66,0004.89
2024-06-13 22:10:00,SystemResetWarning,0830.5,5.00,000.00,028.0,026.5,000.0,036.4,029.6,023.7,0000.0,0006.78,0031.03,0004.88
2024-06-13 22:11:00,SystemResetWarning,0830.5,5.00,000.00,028.1,026.9,000.0,036.4,029.8,024.0,0000.0,0006.78,0030.54,0004.88
2024-06-13 22:12:00,SystemResetWarning,0830.4,4.99,000.00,028.2,027.2,000.0,036.4,030.0,024.7,0000.0,0006.75,0031.47,0004.88
2024-06-13 22:13:00,SystemResetWarning,0830.4,4.99,000.00,028.3,027.6,000.0,036.4,030.2,025.5,0000.0,0006.71,0030.62,0004.87
2024-06-13 22:14:00,SystemResetWarning,0830.4,4.99,000.00,028.4,027.9,000.0,036.5,030.3,024.3,0000.0,0006.77,0030.27,0004.87
2024-06-13 22:15:00,SystemResetWarning,0830.5,5.01,000.00,028.5,028.1,000.0,036.5,030.4,023.7,0000.0,0006.74,0028.56,0004.85
2024-06-13 22:16:00,SystemResetWarning,0830.4,5.00,000.00,028.5,027.5,000.0,036.6,030.1,024.3,0000.0,0006.78,0028.59,0004.82
2024-06-13 22:17:00,SystemResetWarning,0830.2,4.99,000.00,028.2,025.5,000.0,036.6,029.1,023.6,0000.0,0006.81,0027.58,0004.79
2024-06-13 22:18:00,SystemResetWarning,0830.2,5.02,000.00,028.0,025.4,000.0,036.6,029.0,024.1,0000.0,0006.73,0025.62,0004.77
2024-06-13 22:19:00,SystemResetWarning,0830.3,4.99,000.00,028.0,026.0,000.0,036.6,029.3,024.0,0000.0,0006.68,0026.44,0004.74
2024-06-13 22:20:00,SystemResetWarning,0830.3,4.99,000.00,028.1,026.4,000.0,036.5,029.6,024.1,0000.0,0006.55,0026.45,0004.69
2024-06-13 22:21:00,SystemResetWarning,0830.4,5.00,000.00,028.1,026.9,000.0,036.5,029.8,024.0,0000.0,0006.47,0026.54,0004.65
2024-06-13 22:22:00,SystemResetWarning,0830.4,5.01,000.00,028.2,027.3,000.0,036.5,030.0,023.7,0000.0,0006.40,0026.15,0004.60
2024-06-13 22:23:00,SystemResetWarning,0830.4,5.00,000.00,028.3,027.6,000.0,036.5,030.2,023.6,0000.0,0006.33,0026.32,0004.55
2024-06-13 22:24:00,SystemResetWarning,0830.4,5.00,000.00,028.4,027.9,000.0,036.5,030.3,024.2,0000.0,0006.29,0027.42,0004.51
2024-06-13 22:25:00,SystemResetWarning,0830.5,5.00,000.00,028.5,028.0,000.0,036.6,030.4,024.5,0000.0,0006.25,0027.81,0004.49
2024-06-13 22:26:00,SystemResetWarning,0830.3,4.97,000.00,028.4,026.5,000.0,036.6,029.6,024.9,0000.0,0006.27,0029.22,0004.48
2024-06-13 22:27:00,SystemResetWarning,0830.3,5.02,000.00,028.1,025.0,000.0,036.6,028.8,025.4,0000.0,0006.21,0027.99,0004.47
2024-06-13 22:28:00,SystemResetWarning,0830.3,5.00,000.00,027.9,025.4,000.0,036.6,029.0,025.8,0000.0,0006.17,0027.36,0004.48
2024-06-13 22:29:00,SystemResetWarning,0830.4,4.99,000.00,028.0,025.9,000.0,036.5,029.3,026.2,0000.0,0006.18,0025.88,0004.48
2024-06-13 22:30:00,SystemResetWarning,0830.4,5.00,000.00,028.0,026.4,000.0,036.5,029.6,025.3,0000.0,0006.17,0026.13,0004.47
2024-06-13 22:31:00,SystemResetWarning,0830.4,5.01,000.00,028.1,026.8,000.0,036.4,029.8,025.9,0000.0,0006.21,0025.52,0004.48
2024-06-13 22:32:00,SystemResetWarning,0830.4,5.00,000.00,028.2,027.2,000.0,036.4,030.0,026.0,0000.0,0006.20,0024.65,0004.48
2024-06-13 22:33:00,SystemResetWarning,0830.4,5.00,000.00,028.3,027.6,000.0,036.4,030.1,025.9,0000.0,0006.22,0024.23,0004.50
2024-06-13 22:34:00,SystemResetWarning,0830.4,5.00,000.00,028.4,027.9,000.0,036.5,030.3,025.7,0000.0,0006.26,0024.09,0004.52
2024-06-13 22:35:00,SystemResetWarning,0830.3,5.00,000.00,028.5,028.1,000.0,036.5,030.4,025.6,0000.0,0006.29,0024.72,0004.53
2024-06-13 22:36:00,SystemResetWarning,0830.3,5.00,000.00,028.6,028.3,000.0,036.6,030.5,025.7,0000.0,0006.28,0024.18,0004.56
2024-06-13 22:37:00,SystemResetWarning,0830.2,4.98,000.00,028.6,027.2,000.0,036.7,029.9,025.8,0000.0,0006.31,0024.10,0004.58
2024-06-13 22:38:00,SystemResetWarning,0830.2,5.00,000.00,028.2,025.4,000.0,036.7,029.1,026.6,0000.0,0006.28,0023.52,0004.59
2024-06-13 22:39:00,SystemResetWarning,0830.2,5.02,000.00,028.0,025.5,000.0,036.7,029.1,027.4,0000.0,0006.29,0024.34,0004.59
2024-06-13 22:40:00,SystemResetWarning,0830.2,4.99,000.00,028.1,026.1,000.0,036.6,029.4,026.9,0000.0,0006.31,0025.64,0004.61
2024-06-13 22:41:00,SystemResetWarning,0830.3,5.00,000.00,028.1,026.5,000.0,036.5,029.6,026.3,0000.0,0006.34,0024.82,0004.64
2024-06-13 22:42:00,SystemResetWarning,0830.3,5.01,000.00,028.2,027.0,000.0,036.5,029.9,025.6,0000.0,0006.39,0023.50,0004.66
2024-06-13 22:43:00,SystemResetWarning,0830.3,5.01,000.00,028.3,027.4,000.0,036.5,030.0,025.2,0000.0,0006.46,0023.35,0004.68
2024-06-13 22:44:00,SystemResetWarning,0830.3,4.99,000.00,028.4,027.7,000.0,036.5,030.2,025.1,0000.0,0006.54,0023.28,0004.70
2024-06-13 22:45:00,SystemResetWarning,0830.2,5.00,000.00,028.5,028.0,000.0,036.6,030.4,025.6,0000.0,0006.57,0022.31,0004.72
2024-06-13 22:46:00,SystemResetWarning,0830.3,5.00,000.00,028.6,028.2,000.0,036.6,030.5,025.8,0000.0,0006.66,0021.22,0004.73
2024-06-13 22:47:00,SystemResetWarning,0830.2,5.00,000.00,028.7,028.2,000.0,036.7,030.5,025.8,0000.0,0006.68,0021.90,0004.73
2024-06-13 22:48:00,SystemResetWarning,0830.2,4.99,000.00,028.5,026.4,000.0,036.7,029.6,026.5,0000.0,0006.73,0024.60,0004.73
2024-06-13 22:49:00,SystemResetWarning,0830.2,5.01,000.00,028.2,025.2,000.0,036.7,029.1,027.6,0000.0,0006.91,0030.00,0004.74
2024-06-13 22:50:00,SystemResetWarning,0830.2,5.01,000.00,028.1,025.8,000.0,036.7,029.3,027.6,0000.0,0007.01,0029.67,0004.76
2024-06-13 22:51:00,SystemResetWarning,0830.2,5.00,000.00,028.1,026.2,000.0,036.6,029.5,027.0,0000.0,0007.01,0028.77,0004.75
2024-06-13 22:52:00,SystemResetWarning,0830.3,5.00,000.00,028.2,026.7,000.0,036.6,029.8,027.0,0000.0,0006.95,0029.75,0004.76
2024-06-13 22:53:00,SystemResetWarning,0830.2,5.00,000.00,028.3,027.1,000.0,036.6,030.0,026.9,0000.0,0006.88,0032.51,0004.75
2024-06-13 22:54:00,SystemResetWarning,0830.2,5.00,000.00,028.4,027.5,000.0,036.6,030.2,027.1,0000.0,0006.82,0033.31,0004.74
2024-06-13 22:55:00,SystemResetWarning,0830.3,5.00,000.00,028.5,027.8,000.0,036.6,030.3,027.1,0000.0,0006.78,0035.73,0004.71
2024-06-13 22:56:00,SystemResetWarning,0830.3,5.00,000.00,028.6,028.1,000.0,036.6,030.5,027.8,0000.0,0006.76,0036.37,0004.69
2024-06-13 22:57:00,SystemResetWarning,0830.3,5.00,000.00,028.7,028.3,000.0,036.7,030.6,026.7,0000.0,0006.79,0036.58,0004.68
2024-06-13 22:58:00,SystemResetWarning,0830.2,4.99,000.00,028.7,027.8,000.0,036.8,030.4,026.6,0000.0,0006.83,0038.03,0004.67
2024-06-13 22:59:00,SystemResetWarning,0830.2,5.00,000.00,028.5,025.9,000.0,036.8,029.4,026.5,0000.0,0006.74,0036.85,0004.65
